Rochester, NH

4:19 AM EDT on May 25, 2018 (GMT -0400)
Skyhaven

Weather History for KDAW - May, 2013

Change the Weather History Date:

Sunday, May 26, 2013

  Actual Average (KPSM) Record (KPSM)
Temperature  
Mean Temperature 47 °F -  
Max Temperature 57 °F 65 °F 88 °F (1984)
Min Temperature 39 °F 46 °F 31 °F (1992)
Degree Days  
Heating Degree Days 18    
Moisture  
Dew Point 37 °F    
Average Humidity 73    
Maximum Humidity 93    
Minimum Humidity 49    
Precipitation  
Precipitation 0.13 in - - ()
Sea Level Pressure  
Sea Level Pressure 29.77 in    
Wind  
Wind Speed 12 mph (NW)    
Max Wind Speed 20 mph    
Max Gust Speed 30 mph    
Visibility 10 miles    
Events Rain    
Averages and records for this station are not official NWS values.
T = Trace of Precipitation, MM = Missing Value Source: NWS Daily Summary

Daily Weather History Graph

Daily Weather History Graph

Search for Another Location

Airport or City:

Astronomy

May. 26, 2013 Rise Set
Actual Time 5:09 AM EDT 8:12 PM EDT
Civil Twilight 4:35 AM EDT 8:46 PM EDT
Nautical Twilight 3:52 AM EDT 9:30 PM EDT
Astronomical Twilight 3:00 AM EDT 10:22 PM EDT
Moon 9:56 PM EDT (5/26) 6:36 AM EDT (5/26)
Length of Visible Light 16h 10m
Length of Day
15h 02m
Waning Gibbous, 97% of the Moon is Illuminated
May 26
Waning Gibbous
May 31
Last Quarter
Jun 8
New
Jun 16
First Quarter
Jun 23
Full

Hourly Weather History & Observations

Time (EDT) Temp. Windchill Dew Point Humidity Pressure Visibility Wind Dir Wind Speed Gust Speed Precip Events Conditions
12:14 AM 39.2 °F 32.5 °F 37.4 °F 93% 29.66 in 8.0 mi NW 10.4 mph 20.7 mph 0.00 in   Overcast
12:51 AM 39.9 °F 32.1 °F 37.0 °F 89% 29.65 in 10.0 mi NW 13.8 mph - 0.00 in   Overcast
1:39 AM 39.2 °F 31.6 °F 37.4 °F 93% 29.64 in 10.0 mi WNW 12.7 mph 18.4 mph 0.01 in Rain Light Rain
1:51 AM 39.9 °F 32.5 °F 37.0 °F 89% 29.64 in 10.0 mi NW 12.7 mph - 0.01 in Rain Light Rain
2:07 AM 39.2 °F 31.2 °F 37.4 °F 93% 29.64 in 10.0 mi NW 13.8 mph - 0.01 in Rain Light Rain
2:18 AM 39.2 °F 31.6 °F 37.4 °F 93% 29.64 in 10.0 mi WNW 12.7 mph - 0.02 in Rain Light Rain
2:51 AM 39.9 °F 32.5 °F 37.9 °F 93% 29.63 in 10.0 mi NW 12.7 mph 19.6 mph 0.03 in Rain Light Rain
3:39 AM 41.0 °F 33.5 °F 37.4 °F 87% 29.63 in 8.0 mi NW 13.8 mph 21.9 mph 0.03 in Rain Light Rain
3:51 AM 41.0 °F 33.5 °F 37.9 °F 89% 29.63 in 7.0 mi WNW 13.8 mph - 0.04 in Rain Light Rain
4:23 AM 41.0 °F 33.9 °F 39.2 °F 93% 29.64 in 5.0 mi WNW 12.7 mph 17.3 mph 0.04 in Rain Light Rain
4:51 AM 41.0 °F 34.3 °F 37.9 °F 89% 29.65 in 9.0 mi NW 11.5 mph 19.6 mph 0.05 in   Overcast
5:51 AM 41.0 °F 34.7 °F 37.9 °F 89% 29.67 in 10.0 mi WNW 10.4 mph - 0.00 in   Overcast
6:51 AM 42.1 °F 36.1 °F 37.9 °F 85% 29.68 in 10.0 mi NW 10.4 mph - N/A   Overcast
7:51 AM 44.1 °F 38.6 °F 37.9 °F 79% 29.71 in 10.0 mi NW 10.4 mph 20.7 mph N/A   Overcast
8:51 AM 46.9 °F - 39.0 °F 74% 29.73 in 10.0 mi WNW 9.2 mph - N/A   Overcast
9:12 AM 48.2 °F - 39.2 °F 71% 29.73 in 10.0 mi WNW 12.7 mph 19.6 mph N/A   Overcast
9:51 AM 48.9 °F - 39.0 °F 69% 29.74 in 10.0 mi NW 16.1 mph 23.0 mph N/A   Overcast
10:51 AM 51.1 °F - 37.0 °F 59% 29.76 in 10.0 mi NNW 19.6 mph 27.6 mph N/A   Overcast
11:51 AM 53.1 °F - 36.0 °F 52% 29.76 in 10.0 mi WNW 16.1 mph 29.9 mph N/A   Overcast
12:51 PM 55.0 °F - 37.0 °F 51% 29.78 in 10.0 mi WNW 11.5 mph 20.7 mph N/A   Scattered Clouds
1:51 PM 55.9 °F - 37.9 °F 51% 29.80 in 10.0 mi NW 18.4 mph 26.5 mph N/A   Overcast
2:51 PM 54.0 °F - 37.0 °F 53% 29.83 in 10.0 mi NW 16.1 mph 24.2 mph N/A   Overcast
3:51 PM 55.9 °F - 37.0 °F 49% 29.85 in 10.0 mi NW 19.6 mph 28.8 mph N/A   Scattered Clouds
4:51 PM 55.0 °F - 37.0 °F 51% 29.87 in 10.0 mi WNW 10.4 mph 19.6 mph N/A   Overcast
5:51 PM 55.0 °F - 36.0 °F 49% 29.90 in 10.0 mi NW 16.1 mph 28.8 mph N/A   Scattered Clouds
6:51 PM 53.1 °F - 37.0 °F 55% 29.93 in 10.0 mi NW 15.0 mph 24.2 mph N/A   Partly Cloudy
7:51 PM 51.1 °F - 37.0 °F 59% 29.96 in 10.0 mi WNW 8.1 mph - N/A   Clear
8:51 PM 48.9 °F - 37.0 °F 64% 29.99 in 10.0 mi WNW 10.4 mph - N/A   Clear
9:51 PM 46.9 °F - 37.0 °F 68% 30.01 in 10.0 mi NW 8.1 mph - N/A   Clear
10:51 PM 46.9 °F - 37.0 °F 68% 30.01 in 10.0 mi Calm Calm - N/A   Clear
11:51 PM 46.0 °F 44.8 °F 36.0 °F 68% 30.03 in 10.0 mi Variable 3.5 mph - N/A   Clear